Regional Weather Roundup
Issued by NWS

Current Version | Previous Version | Text Only | Print | Product List | Glossary Off
Versions: 1 2 3 4 5 6 7 8 9 10 11 12 13 14 15 16 17 18 19 20 21 22 23 24 25 26 27 28 29 30 31 32 33 34 35 36 37 38 39 40 41 42 43 44 45 46 47 48 49 50

000
ASUS44 KBMX 241410
RWRAL

ALABAMA REGIONAL WEATHER ROUNDUP
NATIONAL WEATHER SERVICE BIRMINGHAM AL
900 AM CDT MON APR 24 2017

NOTE: "FAIR" INDICATES FEW OR NO CLOUDS BELOW 12,000 FEET
WITH NO SIGNIFICANT WEATHER AND/OR OBSTRUCTIONS TO VISIBILITY.

THE REMARK "TC" DENOTES TEMPERATURE IN DEGREES CELSIUS.

ALZ001>011-014-016>018-020-241500-
NORTH ALABAMA

CITY           SKY/WX    TMP DP  RH WIND       PRES   REMARKS
MUSCLE SHOALS  CLOUDY    57  52  83 N6        29.88R
HUNTSVILLE     CLOUDY    57  54  89 NW9       29.84R
DECATUR        CLOUDY    55  54  96 NW5       29.86R
HALEYVILLE     CLOUDY    54  52  93 N7        29.88R
GADSDEN        CLOUDY    59  54  83 NE5       29.82S
$$

ALZ012-013-022-023-030>036-040>044-241500-
WEST CENTRAL ALABAMA

CITY           SKY/WX    TMP DP  RH WIND       PRES   REMARKS
TUSCALOOSA     PTSUNNY   57  53  86 N6        29.86S
$$

ALZ015-024>027-033>036-040>044-241500-
CENTRAL ALABAMA

CITY           SKY/WX    TMP DP  RH WIND       PRES   REMARKS
BIRMINGHAM     CLOUDY    54  49  83 W9        29.87R
MONTGOMERY     CLOUDY    57  48  72 NW12      29.83S
SHELBY CO ARPT CLOUDY    55  49  80 NW9       29.85R
MAXWELL AFB    CLOUDY    56  49  79 NW8       29.83R
GREENVILLE     CLOUDY    54  47  77 VRB6      29.83R
$$

ALZ019-021-028-029-037-038-045>048-241500-
EAST CENTRAL ALABAMA

CITY           SKY/WX    TMP DP  RH WIND       PRES   REMARKS
ANNISTON       CLOUDY    56  53  90 CALM      29.81R
ALEXANDER CITY CLOUDY    55  50  82 NW8       29.81R
AUBURN         LGT RAIN  53  52  96 NW8       29.81R FOG
$$

ALZ051>064-241500-
SOUTHWEST ALABAMA

CITY           SKY/WX    TMP DP  RH WIND       PRES   REMARKS
MOBILE         MOSUNNY   61  49  64 NW9G20    29.88S
BROOKLEY FIELD MOSUNNY   62  51  67 NW17      29.89S
EVERGREEN      CLOUDY    55  50  83 VRB3      29.85R
$$

ALZ049-050-065>069-241500-
SOUTHEAST ALABAMA

CITY           SKY/WX    TMP DP  RH WIND       PRES   REMARKS
DOTHAN         CLOUDY    56  52  86 W13       29.83S
OZARK          CLOUDY    55  48  76 W10       29.81S
TROY           CLOUDY    55  50  83 W9        29.82S
EUFAULA        CLOUDY    59  52  77 W8        29.78R
$$



USA.gov is the U.S. government's official web portal to all federal, state and local government web resources and services.